FW9262 Weather Reports


time (UTC)temp
C
wind
direction
speed
KPH
gust
KPH
rain 1hr
cm
rain 24hr
cm
rain mn
cm
humidity
%
barometer
mb
20260503212521 18 354 3.2 17.7 0.00 0.00 0.00 67 1016.6
20260503212019 18 315 1.6 9.7 0.00 0.00 0.00 65 1016.3
20260503211515 18 256 6.4 11.3 0.00 0.00 0.00 62 1016.6
20260503211011 18 309 3.2 11.3 0.00 0.00 0.00 64 1016.6
20260503210508 18 279 4.8 12.9 0.00 0.00 0.00 63 1016.6
20260503210004 18 264 3.2 9.7 0.00 0.00 0.00 65 1016.6
20260503205500 18 234 6.4 11.3 0.00 0.00 0.00 63 1016.3
20260503204956 19 228 6.4 9.7 0.00 0.00 0.00 60 1016.6
20260503204454 18 335 3.2 9.7 0.00 0.00 0.00 62 1016.6
20260503203950 18 284 3.2 6.4 0.00 0.00 0.00 63 1016.6
20260503203448 18 233 6.4 11.3 0.00 0.00 0.00 61 1016.6
20260503202944 18 302 3.2 6.4 0.00 0.00 0.00 62 1017.0
20260503202443 18 236 4.8 9.7 0.00 0.00 0.00 64 1016.6
20260503201941 18 235 1.6 6.4 0.00 0.00 0.00 65 1016.6
20260503201438 18 252 6.4 9.7 0.00 0.00 0.00 63 1017.0
20260503200935 19 267 4.8 6.4 0.00 0.00 0.00 61 1016.6
20260503200432 18 241 6.4 9.7 0.00 0.00 0.00 61 1016.6
20260503195928 18 189 6.4 9.7 0.00 0.00 0.00 60 1016.6
20260503195426 18 232 6.4 9.7 0.00 0.00 0.00 60 1017.0
20260503194922 18 329 1.6 4.8 0.00 0.00 0.00 61 1017.0
20260503194419 18 211 4.8 6.4 0.00 0.00 0.00 63 1017.0
20260503193914 19 258 3.2 11.3 0.00 0.00 0.00 61 1017.0
20260503193410 19 226 4.8 9.7 0.00 0.00 0.00 61 1017.0
20260503192906 19 322 3.2 11.3 0.00 0.00 0.00 62 1017.0
20260503192402 19 135 3.2 11.3 0.00 0.00 0.00 62 1017.0
20260503191858 18 253 6.4 9.7 0.00 0.00 0.00 63 1017.0
20260503191356 18 308 1.6 4.8 0.00 0.00 0.00 62 1017.0
20260503190852 19 240 3.2 11.3 0.00 0.00 0.00 63 1017.0
20260503190349 20 164 3.2 9.7 0.00 0.00 0.00 61 1017.0
20260503185846 20 287 6.4 9.7 0.00 0.00 0.00 62 1017.0
20260503185343 19 247 4.8 11.3 0.00 0.00 0.00 63 1017.0
20260503184842 18 330 8.0 11.3 0.00 0.00 0.00 64 1017.3
20260503184339 18 291 3.2 11.3 0.00 0.00 0.00 64 1017.0
20260503183835 18 235 3.2 6.4 0.00 0.00 0.00 65 1017.3
20260503183332 18 228 3.2 9.7 0.00 0.00 0.00 63 1017.3
20260503182830 18 229 3.2 4.8 0.00 0.00 0.00 65 1017.3
20260503182329 18 344 1.6 3.2 0.00 0.00 0.00 64 1017.3
20260503181825 18 323 0.0 3.2 0.00 0.00 0.00 65 1017.3
20260503181322 18 271 3.2 6.4 0.00 0.00 0.00 65 1017.3
20260503180819 17 336 1.6 1.6 0.00 0.00 0.00 68 1017.0
20260503180317 17 268 1.6 4.8 0.00 0.00 0.00 68 1017.3
20260503175813 17 282 1.6 4.8 0.00 0.00 0.00 69 1017.0
20260503175311 17 276 3.2 4.8 0.00 0.00 0.00 70 1017.3
20260503174806 17 312 0.0 0.0 0.00 0.00 0.00 71 1017.3
20260503174305 17 349 1.6 1.6 0.00 0.00 0.00 72 1017.3
20260503173800 16 254 3.2 3.2 0.00 0.00 0.00 72 1017.3
20260503173255 16 251 3.2 4.8 0.00 0.00 0.00 73 1017.3
20260503172753 16 342 3.2 11.3 0.00 0.00 0.00 73 1017.3
20260503172250 16 313 3.2 4.8 0.00 0.00 0.00 73 1017.3
20260503171746 16 234 3.2 4.8 0.00 0.00 0.00 74 1017.0
20260503171243 16 265 3.2 3.2 0.00 0.00 0.00 74 1017.3
20260503170740 16 284 0.0 0.0 0.00 0.00 0.00 75 1017.0
20260503170237 16 255 4.8 4.8 0.00 0.00 0.00 75 1017.0
20260503160159 15 256 4.8 6.4 0.00 0.00 0.00 77 1017.0
20260503150629 15 264 1.6 3.2 0.00 0.00 0.00 78 1016.3
20260503150125 15 312 0.0 0.0 0.00 0.00 0.00 79 1016.3
20260503131019 15 313 0.0 1.6 0.00 0.00 0.00 85 1015.3
20260503130517 15 305 0.0 4.8 0.00 0.00 0.00 85 1015.3
20260503110407 15 342 0.0 0.0 0.00 0.00 0.00 82 1015.3
20260503090258 15 318 0.0 0.0 0.00 0.00 0.00 81 1016.0
20260503081231 15 313 0.0 1.6 0.00 0.00 0.00 85 1016.0
20260503080726 15 287 0.0 3.2 0.00 0.00 0.00 85 1016.0
20260503080224 15 335 0.0 3.2 0.00 0.00 0.00 86 1016.0
20260503072700 15 335 0.0 3.2 0.00 0.00 0.00 87 1015.6
20260503072157 15 311 0.0 1.6 0.00 0.00 0.00 87 1016.0
20260503071654 15 324 0.0 4.8 0.00 0.00 0.00 87 1015.6
20260503071151 15 288 1.6 3.2 0.00 0.00 0.00 87 1015.6
20260503070648 15 274 0.0 3.2 0.00 0.00 0.00 87 1015.6
20260503070146 15 341 1.6 1.6 0.00 0.00 0.00 87 1015.3
20260503060110 15 342 0.0 1.6 0.00 0.00 0.00 88 1015.3
20260503055101 15 223 3.2 4.8 0.00 0.00 0.00 88 1015.6
20260503054557 15 326 0.0 1.6 0.00 0.00 0.00 88 1015.3
20260503054054 15 336 0.0 3.2 0.00 0.00 0.00 88 1015.3
20260503053552 15 304 0.0 0.0 0.00 0.00 0.00 89 1015.6
20260503053050 15 305 1.6 3.2 0.00 0.00 0.00 89 1015.6
20260503052547 15 267 3.2 3.2 0.00 0.00 0.00 89 1015.6
20260503052043 15 323 0.0 3.2 0.00 0.00 0.00 88 1015.6
20260503051538 15 310 1.6 4.8 0.00 0.00 0.00 89 1015.6
20260503051037 15 290 3.2 4.8 0.00 0.00 0.00 89 1015.6
20260503050532 15 251 1.6 4.8 0.00 0.00 0.00 89 1015.6
20260503050030 15 198 3.2 4.8 0.00 0.00 0.00 89 1016.0
20260503045527 15 273 1.6 4.8 0.00 0.00 0.00 90 1015.6
20260503045024 15 328 1.6 4.8 0.00 0.00 0.00 90 1015.6
20260503044520 15 300 1.6 6.4 0.00 0.00 0.00 90 1015.3
20260503044018 15 268 0.0 4.8 0.00 0.00 0.00 90 1015.3
20260503043514 15 283 1.6 3.2 0.00 0.00 0.00 90 1015.3
20260503043011 15 274 1.6 1.6 0.00 0.00 0.00 90 1015.3
20260503042508 15 202 1.6 4.8 0.00 0.00 0.00 90 1015.3
20260503042004 15 321 1.6 4.8 0.00 0.00 0.00 90 1014.9
20260503041501 15 284 1.6 3.2 0.00 0.00 0.00 89 1014.9
20260503040959 15 321 1.6 3.2 0.00 0.00 0.00 90 1014.9
20260503040456 15 324 0.0 0.0 0.00 0.00 0.00 90 1014.6
20260503035953 15 312 1.6 4.8 0.00 0.00 0.00 90 1014.9
20260503035449 15 228 1.6 4.8 0.00 0.00 0.00 90 1014.9
20260503034947 15 337 0.0 3.2 0.00 0.00 0.00 90 1014.6
20260503034444 15 284 1.6 3.2 0.00 0.00 0.00 89 1014.6
20260503033941 15 235 3.2 3.2 0.00 0.00 0.00 89 1014.6
20260503033439 15 276 3.2 3.2 0.00 0.00 0.00 89 1014.3
20260503032937 15 305 0.0 3.2 0.00 0.00 0.00 89 1014.3
20260503032435 15 285 1.6 3.2 0.00 0.00 0.00 89 1014.3
20260503031932 15 313 0.0 1.6 0.00 0.00 0.00 89 1013.9
20260503031430 15 330 3.2 4.8 0.00 0.00 0.00 89 1013.9
20260503030926 15 334 0.0 0.0 0.00 0.00 0.00 89 1013.6
20260503030423 15 339 0.0 6.4 0.00 0.00 0.00 88 1013.9
20260503025920 15 308 1.6 4.8 0.00 0.00 0.00 88 1013.6
20260503025417 15 321 0.0 3.2 0.00 0.00 0.00 88 1013.9
20260503024914 15 328 0.0 3.2 0.00 0.00 0.00 88 1013.6
20260503024410 15 246 0.0 4.8 0.00 0.00 0.00 88 1013.6
20260503023908 15 308 1.6 3.2 0.00 0.00 0.00 88 1013.6
20260503023404 15 299 3.2 4.8 0.00 0.00 0.00 87 1013.6
20260503022901 15 256 3.2 6.4 0.00 0.00 0.00 87 1013.6
20260503022355 15 290 1.6 6.4 0.00 0.00 0.00 87 1013.2
20260503021852 16 272 3.2 4.8 0.00 0.00 0.00 86 1013.6
20260503021349 16 290 3.2 4.8 0.00 0.00 0.00 85 1013.2
20260503020846 16 341 1.6 3.2 0.00 0.00 0.00 85 1013.2
20260503020344 16 279 4.8 6.4 0.00 0.00 0.00 84 1013.2
20260503015840 16 283 4.8 6.4 0.00 0.00 0.00 84 1013.6
20260503015337 16 265 1.6 4.8 0.00 0.00 0.00 84 1013.2
20260503014833 16 302 1.6 3.2 0.00 0.00 0.00 84 1013.2
20260503014331 16 346 3.2 4.8 0.00 0.00 0.00 84 1013.2
20260503013828 16 209 6.4 9.7 0.00 0.00 0.00 83 1013.2
20260503013325 16 153 3.2 4.8 0.00 0.00 0.00 83 1013.2
20260503012822 16 251 3.2 6.4 0.00 0.00 0.00 83 1013.2
20260503012320 16 248 4.8 6.4 0.00 0.00 0.00 82 1013.2
20260503011816 17 310 3.2 6.4 0.00 0.00 0.00 81 1013.2
20260503011313 16 306 1.6 6.4 0.00 0.00 0.00 82 1013.2
20260503010809 16 321 3.2 9.7 0.00 0.00 0.00 82 1013.2
20260503010307 16 342 3.2 6.4 0.00 0.00 0.00 82 1013.2
20260503005804 17 293 3.2 4.8 0.00 0.00 0.00 81 1013.2
20260503005304 16 236 6.4 12.9 0.00 0.00 0.00 81 1012.9
20260503004756 17 282 3.2 4.8 0.00 0.00 0.00 81 1013.2
20260503004255 17 332 1.6 4.8 0.00 0.00 0.00 80 1013.2
20260503003752 17 310 4.8 9.7 0.00 0.00 0.00 80 1013.2
20260503003249 17 301 3.2 6.4 0.00 0.00 0.00 80 1013.2
20260503002745 17 306 3.2 6.4 0.00 0.00 0.00 81 1013.2
20260503002243 17 282 4.8 9.7 0.00 0.00 0.00 80 1013.2
20260503001739 17 244 1.6 9.7 0.00 0.00 0.00 81 1013.2
20260503001235 17 241 4.8 9.7 0.00 0.00 0.00 80 1013.2
20260503000733 17 234 8.0 9.7 0.00 0.00 0.00 78 1013.2
20260503000233 17 199 3.2 9.7 0.00 0.00 0.00 78 1013.2
20260502235727 17 330 0.0 3.2 0.00 0.00 0.00 78 1013.2
20260502235225 17 304 3.2 6.4 0.00 0.00 0.00 78 1013.2
20260502234721 17 241 3.2 6.4 0.00 0.00 0.00 79 1013.2
20260502234218 18 286 4.8 9.7 0.00 0.00 0.00 78 1013.2
20260502233714 17 19 3.2 9.7 0.00 0.00 0.00 78 1013.2
20260502233211 18 222 3.2 6.4 0.00 0.00 0.00 77 1013.2
20260502232707 17 292 3.2 4.8 0.00 0.00 0.00 78 1013.6
20260502232204 17 292 1.6 9.7 0.00 0.00 0.00 79 1013.6
20260502231701 18 356 3.2 9.7 0.00 0.00 0.00 77 1013.6
20260502231159 18 177 3.2 11.3 0.00 0.00 0.00 77 1013.2
20260502230657 17 349 1.6 3.2 0.00 0.00 0.00 78 1013.2
20260502230155 18 216 4.8 6.4 0.00 0.00 0.00 78 1013.6
20260502225650 17 234 4.8 9.7 0.00 0.00 0.00 78 1013.6
20260502225148 17 300 6.4 12.9 0.00 0.00 0.00 78 1013.9
20260502224644 17 266 3.2 4.8 0.00 0.00 0.00 78 1013.9
20260502224141 18 293 6.4 11.3 0.00 0.00 0.00 77 1014.3
20260502223639 17 270 3.2 11.3 0.00 0.00 0.00 79 1014.3
20260502223137 17 277 4.8 12.9 0.00 0.00 0.00 79 1014.3
20260502222634 17 280 3.2 4.8 0.00 0.00 0.00 79 1014.6
20260502222131 17 279 3.2 12.9 0.00 0.00 0.00 79 1014.6
20260502221626 17 215 6.4 11.3 0.00 0.00 0.00 79 1014.6
20260502221123 17 152 4.8 11.3 0.00 0.00 0.00 79 1014.6
20260502220619 18 207 4.8 11.3 0.00 0.00 0.00 78 1015.3
20260502220110 17 353 1.6 9.7 0.00 0.00 0.00 79 1014.9
20260502215608 17 157 6.4 11.3 0.00 0.00 0.00 80 1015.3
20260502215104 17 239 9.7 14.5 0.00 0.00 0.00 78 1015.3
20260502214601 18 289 3.2 9.7 0.00 0.00 0.00 77 1015.3
20260502214059 18 301 1.6 6.4 0.00 0.00 0.00 77 1015.3
20260502213555 18 267 3.2 9.7 0.00 0.00 0.00 76 1015.6
20260502213053 18 312 3.2 6.4 0.00 0.00 0.00 77 1015.6